Wind_Speed
20 20 21 21 20 20 21 22 23 24 25 27 27 28 28 28 28 29 30 30 29 29 28 25 24 24 23 22 21 21 20 19 20 19 18 18 18 17 17 17 17 16 16 16
20 20 20 20 21 21 22 22 23 24 26 27 28 29 29 28 28 29 29 29 28 28 27 25 23 22 22 22 21 20 19 19 19 18 18 17 17 17 16 17 16 16 15 15
20 20 20 20 21 21 21 22 23 25 27 28 28 28 28 27 27 27 27 27 27 27 26 24 23 23 22 21 21 20 19 17 17 17 17 17 16 16 16 16 15 14 14 14
22 21 21 22 22 22 23 24 25 26 27 28 28 28 26 25 25 26 26 26 26 25 24 24 23 23 21 20 19 19 16 15 15 16 16 16 15 16 16 15 13 12 12 14
24 24 23 23 23 24 25 25 26 26 27 27 27 26 25 24 25 25 25 25 26 25 24 23 22 22 20 19 18 17 15 14 14 15 15 15 15 15 14 13 12 12 13 13
25 25 25 24 24 25 25 25 26 26 25 25 26 26 25 24 24 24 25 26 25 24 23 22 21 21 20 18 17 16 15 12 12 13 13 14 14 13 12 11 11 11 11 11
26 26 26 26 25 26 26 26 24 24 24 24 25 26 25 24 24 24 25 25 25 23 22 21 20 20 18 17 16 15 13 11 11 12 13 12 12 12 10 10 11 11 11 11
27 27 26 27 26 26 26 25 25 25 25 25 26 26 25 25 25 24 24 24 24 23 21 20 19 18 16 16 15 14 12 10 10 11 11 11 11 11 10 10 10 11 11 12
28 27 27 27 27 26 26 25 25 25 25 26 26 26 26 26 26 25 24 24 23 21 19 18 17 16 15 14 14 13 10 9 10 10 10 11 12 11 10 9 10 11 11 12
28 27 27 28 27 27 27 26 26 27 27 27 27 27 26 26 26 25 23 22 20 19 17 16 15 14 13 13 11 10 8 9 9 9 10 11 11 10 10 9 10 11 12 12
26 26 26 26 27 27 27 27 28 28 28 28 28 27 26 25 24 22 20 20 18 16 16 14 13 12 12 10 9 8 7 8 8 8 8 9 9 9 9 10 11 11 11 12
26 26 26 26 26 27 28 28 28 27 27 27 26 26 24 23 22 20 19 17 16 15 13 12 11 10 10 8 8 7 6 6 6 6 7 8 8 9 9 10 11 12 12 13
27 26 26 26 26 27 28 28 28 28 27 26 26 25 24 23 21 19 18 16 14 13 12 11 9 9 8 7 7 7 6 6 6 6 7 8 9 9 9 10 10 11 12 13
27 27 26 27 27 28 29 28 28 28 27 26 25 25 23 21 20 18 17 15 13 12 11 10 9 8 7 7 7 6 5 5 6 6 7 8 9 9 9 9 10 11 13 13
27 27 28 29 29 29 29 29 28 27 27 25 24 23 21 20 18 17 15 13 12 11 10 9 9 8 7 7 6 5 5 6 6 7 7 8 9 10 10 10 11 11 12 12
29 29 29 30 30 29 29 28 27 26 26 24 23 21 20 18 16 15 13 12 11 9 9 9 8 6 6 6 5 5 5 6 6 6 7 8 9 10 11 11 11 11 12 13
30 30 29 29 29 29 29 28 27 26 25 23 21 20 18 17 15 14 13 12 11 10 9 8 7 6 6 5 5 5 5 5 6 6 7 8 9 10 10 11 11 12 13 14
30 30 29 28 28 28 28 28 27 25 24 22 20 19 17 16 15 14 13 12 11 10 9 8 6 6 6 5 5 5 5 5 5 7 8 9 9 9 10 11 11 12 12 14
29 29 28 28 28 27 26 26 24 23 22 20 19 18 17 16 15 14 13 12 11 10 9 8 7 6 6 6 6 5 5 5 6 7 8 9 9 9 10 10 11 12 12 13
29 28 28 27 27 26 25 23 22 22 21 20 19 18 16 15 15 14 12 12 11 10 9 8 7 6 6 6 5 4 4 5 6 7 8 8 9 9 9 10 11 11 12 13
28 28 27 26 25 24 23 22 21 20 20 19 18 17 16 15 14 13 12 11 11 9 9 8 7 6 6 5 5 4 5 5 6 7 8 8 8 9 10 11 12 12 12 14
28 27 27 26 24 22 22 22 22 21 20 19 18 16 16 15 14 13 12 11 11 10 10 9 8 7 6 5 5 4 5 5 6 7 8 8 8 9 10 11 12 12 12 13
28 27 26 25 24 22 21 21 22 21 19 19 17 16 15 15 14 12 12 11 11 11 10 9 9 8 7 6 5 5 5 5 6 6 7 8 9 9 10 11 12 12 13 14
28 27 26 25 24 23 22 21 21 20 19 18 17 16 15 14 13 13 12 12 11 11 10 9 9 8 7 6 5 4 5 5 5 6 7 8 8 9 11 11 12 13 14 15
28 27 26 26 25 23 22 21 20 19 18 18 17 16 14 14 13 13 12 11 11 11 10 10 9 8 7 6 5 5 4 4 5 5 6 7 8 10 11 12 13 13 14 15
27 26 26 25 24 23 22 21 20 18 17 17 16 16 15 14 14 13 13 12 12 11 11 10 9 8 8 7 6 4 4 4 4 5 6 7 8 10 12 13 13 14 15 16
28 27 26 24 24 22 21 20 19 17 16 16 15 15 15 15 14 14 14 14 13 12 11 10 9 8 7 6 6 4 4 4 4 5 6 8 9 11 12 13 14 15 15 16
Wind_Direction
320 319 316 313 312 311 313 313 310 313 315 317 317 317 316 315 314 313 312 310 311 310 310 312 312 312 313 315 313 310 308 310 311 309 307 310 311 311 311 309 308 306 304 304
320 318 314 312 314 314 316 318 316 317 318 319 318 316 316 315 315 316 315 314 312 312 313 313 314 316 316 314 312 310 309 311 309 308 309 312 313 313 312 311 308 306 305 306
317 314 312 311 314 316 318 320 318 320 321 322 321 319 318 316 316 318 321 320 316 314 313 315 315 313 314 314 313 311 310 310 309 309 310 312 314 313 315 314 310 305 306 309
317 316 312 317 317 317 319 318 318 320 321 323 323 323 322 320 320 321 322 321 320 317 314 315 316 314 314 316 315 314 311 310 309 311 314 314 315 314 313 314 315 311 309 312
319 318 315 315 317 317 318 318 321 322 322 323 325 325 324 323 323 322 322 322 321 320 316 314 315 315 313 316 315 313 312 308 307 310 315 316 317 318 316 317 317 317 316 316
318 316 315 316 316 316 315 315 320 320 322 324 326 326 327 323 321 320 322 323 323 321 319 316 314 313 311 315 315 314 314 309 308 311 316 317 319 320 320 319 320 321 321 320
316 315 314 315 316 316 315 316 316 319 321 323 325 325 325 324 319 319 320 321 321 321 319 318 316 314 312 313 314 314 313 311 311 314 319 322 326 325 321 320 321 323 323 323
315 313 314 314 313 315 315 315 314 315 317 320 321 321 322 321 319 317 318 320 321 321 320 319 318 315 313 314 313 314 312 313 314 315 320 324 331 330 325 323 325 328 328 328
311 310 309 309 308 310 312 313 314 312 314 317 318 318 319 319 318 316 317 319 321 323 323 321 319 318 316 316 316 315 312 312 315 317 323 326 331 335 331 328 329 329 331 333
307 307 306 306 306 306 308 309 311 313 313 314 315 316 316 318 318 315 316 317 321 323 322 321 320 320 319 319 321 320 317 315 318 323 329 331 333 338 339 335 331 330 333 336
305 304 301 303 304 304 305 307 308 310 310 311 312 315 316 316 318 314 314 316 318 319 320 321 322 324 325 326 326 326 322 321 321 326 330 333 335 338 339 338 335 336 340 342
304 300 298 299 300 301 303 305 306 308 309 309 311 314 315 316 316 313 312 314 316 318 319 321 326 327 329 329 326 324 324 327 328 329 332 336 338 338 340 340 341 346 349 347
301 299 298 299 299 301 303 305 305 306 307 308 309 311 311 312 312 310 310 308 309 312 317 320 321 324 326 325 324 327 328 332 337 337 340 346 347 345 343 342 342 343 346 347
298 297 296 297 298 300 302 304 305 305 307 307 307 307 307 307 307 306 306 303 305 309 311 313 313 316 318 323 331 338 341 344 345 344 347 350 351 348 345 346 345 346 348 350
294 295 296 296 297 298 301 303 304 305 305 305 305 304 302 302 302 301 299 299 303 306 302 303 305 311 312 319 329 339 343 343 344 348 350 352 352 351 350 349 348 349 350 352
292 294 294 295 294 296 298 299 301 303 303 302 301 300 299 297 297 295 292 293 298 300 300 300 298 300 305 313 322 331 340 341 343 346 348 350 352 352 352 352 351 353 353 353
292 293 294 294 293 294 294 296 298 299 301 301 299 298 296 293 289 286 285 288 290 291 292 292 288 284 295 309 318 323 329 336 342 341 342 344 346 348 350 350 349 349 350 352
295 297 296 296 295 293 293 295 297 297 298 298 295 293 292 290 286 280 277 278 279 279 279 279 273 276 283 296 306 311 318 328 336 343 343 342 342 346 348 347 348 349 350 351
293 295 295 294 293 292 293 295 294 293 293 292 290 287 286 285 282 277 272 269 269 269 268 266 269 273 279 287 296 302 307 318 330 337 340 342 344 345 346 348 349 349 350 352
293 293 293 293 293 292 290 292 291 290 289 287 285 284 282 279 277 274 269 263 261 260 256 254 257 265 275 284 295 298 303 318 331 338 341 344 346 347 347 347 346 346 347 349
291 292 293 292 292 289 287 286 286 286 285 283 283 283 279 273 269 268 262 254 252 249 245 245 249 256 262 272 284 291 304 320 333 339 340 341 344 347 348 348 347 348 348 349
288 289 290 291 289 287 286 285 283 283 281 279 279 278 273 267 265 260 252 247 242 236 237 240 244 249 251 258 269 280 298 316 328 334 339 342 344 347 348 349 352 353 351 350
285 286 286 287 286 285 285 284 282 282 281 277 274 271 269 264 259 251 242 238 234 231 232 234 241 245 245 248 258 276 293 307 319 328 335 340 343 345 346 349 352 353 352 350
278 279 280 281 281 281 281 281 280 279 277 274 270 266 263 258 249 241 234 230 228 227 228 231 236 238 237 236 254 276 294 304 314 321 329 335 339 342 344 348 349 349 349 348
275 276 277 277 276 277 279 279 277 274 272 268 262 257 253 248 242 236 228 224 223 222 222 223 229 233 235 240 253 270 287 299 310 319 328 335 338 341 344 346 347 346 346 346
273 274 275 274 273 274 276 276 273 270 267 261 253 248 243 238 233 227 221 216 217 218 218 220 225 231 236 241 247 262 280 296 306 315 325 333 338 342 345 348 348 346 344 344
270 272 273 271 269 270 272 272 269 264 258 252 246 241 238 231 223 218 216 215 216 215 215 218 223 228 231 234 236 247 266 287 300 311 322 330 336 341 344 346 345 344 343 343
Height
5837 5834 5831 5828 5826 5823 5820 5815 5812 5809 5806 5802 5798 5794 5790 5786 5782 5778 5773 5768 5763 5759 5754 5751 5748 5746 5742 5739 5736 5733 5730 5728 5726 5724 5721 5719 5716 5714 5711 5709 5707 5705 5703 5701
5833 5830 5826 5823 5821 5818 5815 5810 5807 5803 5800 5797 5793 5788 5784 5780 5776 5771 5766 5762 5757 5752 5748 5745 5743 5740 5737 5734 5731 5728 5725 5723 5721 5719 5717 5714 5712 5709 5707 5705 5702 5700 5698 5696
5828 5825 5822 5819 5816 5813 5809 5805 5802 5798 5795 5791 5786 5782 5778 5774 5769 5765 5760 5755 5751 5747 5743 5740 5737 5734 5732 5729 5726 5723 5720 5718 5716 5714 5712 5710 5708 5705 5703 5701 5698 5696 5694 5692
5823 5821 5817 5816 5811 5807 5804 5800 5797 5793 5789 5785 5780 5776 5772 5768 5763 5760 5755 5751 5746 5742 5738 5735 5732 5729 5727 5724 5721 5718 5715 5714 5712 5710 5709 5706 5704 5702 5699 5697 5694 5692 5690 5688
5817 5814 5811 5809 5805 5802 5798 5795 5791 5788 5784 5780 5775 5771 5767 5763 5759 5755 5750 5746 5742 5737 5734 5731 5727 5725 5722 5720 5717 5714 5711 5710 5708 5707 5705 5703 5700 5698 5696 5693 5691 5689 5687 5685
5812 5809 5806 5805 5801 5796 5794 5790 5787 5783 5779 5775 5770 5766 5763 5758 5754 5750 5746 5741 5737 5733 5729 5726 5723 5720 5718 5716 5713 5710 5707 5706 5705 5703 5702 5699 5697 5695 5693 5691 5689 5687 5685 5683
5807 5803 5800 5798 5794 5792 5789 5787 5782 5778 5774 5770 5766 5762 5758 5753 5749 5745 5741 5737 5733 5729 5725 5722 5719 5716 5714 5712 5709 5706 5704 5703 5702 5700 5699 5696 5694 5692 5690 5688 5686 5685 5683 5681
5801 5798 5797 5792 5788 5786 5783 5779 5776 5772 5769 5765 5761 5757 5753 5748 5744 5741 5737 5732 5728 5724 5721 5718 5715 5713 5710 5708 5706 5704 5702 5700 5699 5698 5696 5694 5692 5690 5688 5686 5684 5682 5680 5678
5796 5794 5789 5786 5783 5780 5777 5774 5771 5767 5763 5760 5756 5752 5748 5744 5739 5735 5732 5728 5724 5720 5717 5714 5711 5709 5707 5705 5703 5701 5700 5698 5697 5696 5694 5692 5690 5688 5686 5684 5682 5680 5678 5676
5790 5787 5783 5780 5777 5775 5772 5768 5765 5761 5758 5754 5751 5747 5743 5738 5734 5730 5727 5724 5720 5717 5714 5711 5708 5706 5704 5702 5700 5699 5698 5696 5695 5694 5692 5690 5688 5686 5684 5683 5681 5679 5676 5674
5784 5781 5778 5774 5771 5769 5766 5763 5759 5756 5752 5748 5745 5741 5737 5733 5730 5726 5723 5720 5717 5714 5711 5709 5706 5704 5702 5700 5699 5697 5696 5695 5694 5692 5691 5689 5687 5685 5683 5681 5679 5677 5675 5672
5778 5775 5772 5769 5766 5763 5760 5757 5753 5750 5747 5743 5739 5735 5732 5729 5725 5722 5719 5717 5714 5711 5709 5706 5705 5703 5701 5700 5698 5697 5696 5694 5693 5691 5690 5688 5686 5684 5682 5680 5678 5676 5673 5671
5770 5768 5765 5763 5760 5757 5754 5751 5747 5744 5740 5737 5733 5730 5726 5723 5720 5717 5715 5713 5710 5708 5706 5705 5704 5702 5701 5699 5698 5696 5695 5693 5692 5690 5689 5687 5685 5683 5681 5679 5677 5675 5672 5670
5763 5761 5758 5756 5753 5750 5747 5744 5740 5737 5734 5730 5727 5724 5720 5718 5715 5713 5711 5709 5707 5705 5704 5703 5702 5701 5699 5698 5697 5696 5694 5692 5691 5689 5688 5686 5684 5682 5680 5678 5676 5674 5671 5668
5756 5753 5751 5748 5746 5743 5740 5737 5734 5730 5727 5724 5721 5718 5715 5713 5711 5709 5707 5705 5704 5702 5701 5701 5700 5699 5698 5697 5696 5694 5693 5692 5690 5689 5687 5685 5683 5681 5679 5677 5675 5672 5670 5667
5748 5746 5743 5740 5738 5735 5732 5729 5726 5724 5721 5718 5715 5712 5710 5708 5706 5705 5703 5702 5701 5700 5699 5698 5697 5697 5696 5695 5694 5693 5692 5691 5689 5688 5686 5685 5683 5680 5678 5676 5674 5671 5668 5666
5739 5737 5734 5732 5729 5727 5724 5721 5719 5716 5714 5711 5709 5707 5705 5704 5702 5701 5700 5699 5698 5697 5696 5695 5695 5694 5694 5693 5692 5692 5691 5690 5688 5687 5685 5684 5682 5680 5677 5675 5673 5670 5667 5665
5729 5727 5725 5722 5720 5718 5715 5713 5711 5709 5707 5705 5703 5701 5700 5699 5698 5697 5696 5695 5694 5694 5693 5693 5692 5692 5692 5691 5690 5690 5689 5688 5687 5685 5684 5682 5680 5678 5676 5674 5672 5669 5666 5663
5721 5719 5716 5714 5712 5709 5708 5706 5704 5702 5700 5699 5697 5696 5695 5694 5693 5692 5691 5691 5691 5690 5690 5690 5690 5690 5689 5689 5688 5688 5687 5686 5685 5684 5683 5681 5679 5677 5675 5673 5670 5668 5665 5662
5712 5710 5708 5706 5704 5702 5700 5698 5697 5695 5694 5692 5691 5690 5690 5689 5688 5687 5687 5687 5687 5687 5687 5687 5687 5687 5687 5687 5687 5686 5686 5685 5684 5683 5681 5680 5678 5676 5673 5671 5669 5667 5664 5661
5704 5702 5700 5698 5696 5694 5692 5691 5689 5688 5687 5686 5685 5684 5684 5684 5683 5683 5683 5683 5684 5684 5684 5685 5685 5685 5685 5685 5685 5684 5684 5683 5682 5681 5679 5678 5676 5674 5672 5670 5667 5665 5662 5659
5695 5693 5692 5690 5689 5687 5685 5684 5683 5682 5681 5680 5679 5678 5678 5678 5678 5678 5678 5679 5680 5681 5681 5682 5682 5682 5683 5683 5683 5682 5682 5681 5680 5679 5678 5676 5675 5673 5671 5668 5666 5663 5660 5657
5686 5685 5684 5682 5681 5680 5679 5677 5676 5675 5674 5674 5673 5673 5673 5673 5673 5673 5674 5675 5676 5677 5678 5679 5680 5680 5680 5681 5681 5681 5680 5679 5679 5678 5677 5675 5673 5672 5670 5667 5664 5661 5659 5656
5677 5676 5675 5674 5673 5672 5671 5670 5669 5668 5668 5668 5667 5667 5667 5668 5668 5669 5670 5671 5672 5673 5675 5676 5677 5678 5678 5679 5679 5678 5678 5677 5677 5676 5675 5674 5672 5670 5668 5665 5663 5660 5657 5654
5668 5667 5667 5666 5665 5665 5664 5663 5662 5662 5661 5661 5662 5662 5662 5663 5664 5665 5666 5667 5669 5670 5672 5673 5674 5675 5676 5676 5676 5676 5676 5675 5675 5674 5674 5672 5671 5669 5666 5664 5661 5658 5655 5652
5659 5658 5658 5657 5657 5657 5657 5656 5655 5655 5655 5655 5656 5656 5657 5658 5659 5661 5662 5664 5666 5667 5669 5670 5671 5672 5673 5674 5674 5674 5674 5674 5673 5673 5672 5671 5669 5667 5664 5662 5659 5656 5653 5650
5649 5649 5649 5649 5649 5649 5649 5649 5649 5649 5649 5649 5650 5651 5652 5653 5655 5657 5659 5661 5663 5665 5666 5668 5669 5670 5671 5671 5672 5672 5672 5672 5671 5671 5670 5669 5667 5665 5663 5660 5657 5654 5651 5648